[[{"header":{"parameterUnit":"m.s-1","parameterCategory":1,"la1":30.2991,"la2":30.254,"lo1":-89.0895,"lo2":-89.0444,"dy":0.0017,"dx":0.0017,"nx":28,"ny":28,"refTime":"2023-09-11T03:00:00:Z","depth":0,"parameterNumber":2,"parameterNumberName":"U-component_of_WINDS"},"data":[0,0,0,0,0,0,0,0,0,0,0,0,0,0,0,0,0,0,0,0,0,0,0,0,0,0,0,0,0,0,0,0,0,0,0,0,0,0,0,0,0,0,0,0,0,0,0,0,0,0,0,0,0,0,0,0,0,0,-0.2652,-0.2651,0,-0.2596,-0.2596,-0.2595,-0.2604,-0.2605,-0.2606,-0.2607,-0.2546,-0.2544,-0.2541,0,0,0,0,0,0,0,0,0,0,0,0,0,-0.2762,-0.276,-0.2652,-0.2651,-0.265,-0.2596,-0.2595,-0.2595,-0.2604,-0.2605,-0.2606,-0.2607,-0.2547,-0.2544,-0.2541,0,0,0,0,0,0,0,0,0,0,0,0,0,-0.2711,-0.276,-0.2652,-0.2648,-0.2647,-0.2596,-0.2595,-0.2595,-0.2603,-0.2605,-0.2606,-0.2608,-0.2548,-0.2544,-0.2541,-0.2489,0,0,-0.2529,-0.2528,0,0,0,0,0,0,0,0,-0.2714,-0.2707,-0.2649,-0.2648,-0.2647,-0.2608,-0.2612,-0.2559,-0.2603,-0.262,-0.2607,-0.2608,-0.2566,-0.256,-0.2547,-0.2486,-0.2483,-0.2529,-0.2527,-0.2525,-0.2524,0,0,0,0,0,0,0,-0.2718,-0.271,-0.263,-0.2649,-0.2647,-0.2648,-0.2643,-0.2602,-0.2585,-0.2619,-0.2619,-0.2613,-0.2565,-0.255,-0.2545,-0.2482,-0.2529,-0.2526,-0.2523,-0.2522,-0.2376,-0.2374,0,0,0,0,0,0,-0.2723,-0.2712,-0.2631,-0.2628,-0.2685,-0.2645,-0.2639,-0.2619,-0.2586,-0.2582,-0.2611,-0.2613,-0.2556,-0.255,-0.2543,-0.248,-0.2525,-0.2522,-0.2519,-0.2377,-0.2375,-0.2374,0,0,0,0,0,0,-0.2725,-0.2715,-0.2634,-0.267,-0.266,-0.2642,-0.262,-0.2618,-0.2603,-0.258,-0.2577,-0.26,-0.2557,-0.2549,-0.2502,-0.2478,-0.252,-0.2516,-0.2379,-0.2377,-0.2374,-0.2353,0,0,0,0,0,0,-0.2728,-0.2716,-0.2697,-0.267,-0.2658,-0.2594,-0.2618,-0.2615,-0.2597,-0.2598,-0.2568,-0.2565,-0.2557,-0.2508,-0.2499,-0.2473,-0.2513,-0.2381,-0.2378,-0.2375,-0.2355,-0.235,-0.2345,0,0,0,0,0,-0.2732,-0.2692,-0.2696,-0.2686,-0.2634,-0.2593,-0.2586,-0.258,-0.2595,-0.2575,-0.256,-0.2566,-0.2482,-0.2503,-0.2493,-0.2466,-0.2383,-0.2379,-0.2375,-0.2358,-0.2351,-0.2345,0,0,0,0,0,0,-0.2715,-0.2688,-0.2692,-0.2643,-0.262,-0.2595,-0.2569,-0.2572,-0.2544,-0.2547,-0.2539,-0.2532,-0.2485,-0.2471,-0.2495,-0.2414,-0.2434,-0.2429,-0.2425,-0.2418,-0.2413,-0.2416,-0.251,0,0,0,0,0,-0.2706,-0.2676,-0.2654,-0.2612,-0.2601,-0.2587,-0.2569,-0.2566,-0.2542,-0.2532,-0.2514,-0.249,-0.2458,-0.2437,-0.2407,-0.2354,-0.2347,-0.233,-0.2325,-0.2321,-0.2315,-0.2286,-0.2278,-0.2361,-0.2362,-0.2362,0,0,-0.2686,-0.2668,-0.2649,-0.2608,-0.2591,-0.2559,-0.2579,-0.2544,-0.2521,-0.2527,-0.2482,-0.2468,-0.244,-0.239,-0.2367,-0.2377,-0.2291,-0.2316,-0.2313,-0.231,-0.2281,-0.2273,-0.2266,-0.2359,-0.2359,-0.236,0,0,-0.2633,-0.2617,-0.258,-0.2562,-0.2536,-0.2527,-0.2518,-0.2492,-0.2484,-0.2439,-0.2443,-0.2414,-0.236,-0.234,-0.2323,-0.2263,-0.2267,-0.2254,-0.2225,-0.2197,-0.219,-0.2184,-0.2162,-0.2154,-0.2248,-0.2248,-0.2248,0,-0.2611,-0.2565,-0.256,-0.2526,-0.2508,-0.2513,-0.2476,-0.2458,-0.2422,-0.2409,-0.2421,-0.2353,-0.2335,-0.228,-0.2266,-0.2252,-0.2241,-0.2256,-0.2192,-0.2186,-0.218,-0.2159,-0.2151,-0.2247,-0.2247,-0.2247,-0.2247,0,-0.2538,-0.2506,-0.248,-0.2447,-0.2426,-0.2389,-0.2379,-0.2358,-0.2357,-0.2347,-0.2301,-0.228,-0.2245,-0.2232,-0.223,-0.2177,-0.2184,-0.2194,-0.2214,-0.2171,-0.2151,-0.2142,-0.2245,-0.2245,-0.2246,-0.2246,0,0,-0.2472,-0.2438,-0.2428,-0.2413,-0.2385,-0.236,-0.2324,-0.2291,-0.2273,-0.2248,-0.2217,-0.2172,-0.2181,-0.2161,-0.2158,-0.2133,-0.2086,-0.2145,-0.2145,-0.2134,-0.2025,-0.2017,-0.2008,-0.2089,-0.2087,-0.2086,-0.2027,0,-0.2416,-0.2354,-0.2349,-0.2293,-0.2263,-0.2268,-0.2237,-0.2215,-0.2205,-0.2177,-0.2165,-0.2133,-0.2148,-0.2136,-0.2111,-0.2097,-0.2064,-0.2101,-0.2059,-0.2057,-0.2064,-0.1997,-0.1989,-0.1934,-0.2019,-0.2018,-0.2017,0,-0.2341,-0.2316,-0.2257,-0.2234,-0.2221,-0.2193,-0.2162,-0.2136,-0.2112,-0.2106,-0.2085,-0.2085,-0.2047,-0.207,-0.2017,-0.2043,-0.2025,-0.2015,-0.2013,-0.2008,-0.2034,-0.1989,-0.1916,-0.1907,-0.2005,-0.2006,-0.2007,0,-0.2298,-0.2249,-0.2207,-0.2195,-0.2166,-0.2146,-0.2133,-0.2111,-0.2092,-0.2065,-0.2052,-0.2021,-0.2004,-0.1979,-0.197,-0.1988,-0.1918,-0.194,-0.1911,-0.1911,-0.1894,-0.1895,-0.1816,-0.1885,-0.1885,-0.1885,-0.1885,0,-0.2235,-0.2198,-0.2187,-0.2161,-0.212,-0.2116,-0.2075,-0.2063,-0.2043,-0.2014,-0.2017,-0.199,-0.198,-0.1951,-0.1944,-0.1901,-0.1893,-0.1886,-0.1885,-0.1885,-0.1886,-0.1873,-0.1876,-0.1883,-0.1883,-0.1884,-0.1884,0,-0.2178,-0.217,-0.2125,-0.2102,-0.2096,-0.2066,-0.2046,-0.2021,-0.2012,-0.1975,-0.1966,-0.1951,-0.1917,-0.1906,-0.1865,-0.186,-0.1809,-0.1811,-0.1818,-0.1817,-0.1788,-0.179,-0.1697,-0.1684,-0.1762,-0.1761,-0.1761,0,-0.2138,-0.211,-0.2085,-0.2067,-0.2054,-0.2024,-0.2005,-0.1999,-0.1979,-0.195,-0.1928,-0.1894,-0.1867,-0.1812,-0.1796,-0.1765,-0.1765,-0.1735,-0.176,-0.1762,-0.1763,-0.1765,-0.1762,-0.1729,-0.1729,-0.1728,-0.1727,0,-0.2067,-0.2065,-0.2038,-0.2009,-0.1987,-0.1964,-0.1942,-0.1926,-0.1917,-0.1894,-0.186,-0.1839,-0.1798,-0.1764,-0.1732,-0.1717,-0.172,-0.172,-0.1711,-0.1711,-0.1715,-0.1712,-0.1803,-0.1721,-0.1722,-0.1722,-0.1723,-0.1723,-0.2017,-0.1992,-0.1971,-0.1941,-0.1924,-0.1904,-0.1879,-0.1867,-0.1839,-0.1806,-0.1804,-0.1767,-0.1743,-0.1701,-0.1685,-0.1655,-0.1663,-0.1651,-0.1647,-0.1644,-0.1641,-0.1721,-0.1649,-0.1649,-0.1649,-0.1649,-0.1649,0,-0.1945,-0.1932,-0.1905,-0.1874,-0.1851,-0.1858,-0.1834,-0.1813,-0.1781,-0.1759,-0.1733,-0.1694,-0.1661,-0.1644,-0.1611,-0.1591,-0.1591,-0.1582,-0.1583,-0.1579,-0.1636,-0.1646,-0.1582,-0.1582,-0.1582,-0.1582,-0.1582,-0.1582,-0.1905,-0.1864,-0.1859,-0.1809,-0.1797,-0.1761,-0.1747,-0.1728,-0.1711,-0.1667,-0.1641,-0.1631,-0.161,-0.1577,-0.1547,-0.1543,-0.153,-0.152,-0.1516,-0.1569,-0.1576,-0.1582,-0.1592,-0.1517,-0.1517,-0.1462,-0.1461,-0.1461]},{"header":{"parameterUnit":"m.s-1","parameterCategory":1,"la1":30.2991,"la2":30.254,"lo1":-89.0895,"lo2":-89.0444,"dy":0.0017,"dx":0.0017,"nx":28,"ny":28,"refTime":"2023-09-11T03:00:00:Z","depth":0,"parameterNumber":3,"parameterNumberName":"V-component_of_WINDS"},"data":[0,0,0,0,0,0,0,0,0,0,0,0,0,0,0,0,0,0,0,0,0,0,0,0,0,0,0,0,0,0,0,0,0,0,0,0,0,0,0,0,0,0,0,0,0,0,0,0,0,0,0,0,0,0,0,0,0,0,-0.9086,-0.9088,0,-0.9254,-0.9256,-0.9258,-0.9369,-0.937,-0.9371,-0.9372,-0.9544,-0.9548,-0.9552,0,0,0,0,0,0,0,0,0,0,0,0,0,-0.8863,-0.8866,-0.9086,-0.9088,-0.909,-0.9254,-0.9256,-0.9258,-0.9369,-0.937,-0.9371,-0.9372,-0.9543,-0.9548,-0.9552,0,0,0,0,0,0,0,0,0,0,0,0,0,-0.8988,-0.8867,-0.9086,-0.9165,-0.9174,-0.9253,-0.9256,-0.9259,-0.9369,-0.937,-0.9371,-0.9372,-0.9541,-0.9547,-0.9553,-0.9567,0,0,-0.9571,-0.9573,0,0,0,0,0,0,0,0,-0.8981,-0.8996,-0.9151,-0.916,-0.917,-0.9292,-0.9241,-0.9362,-0.9369,-0.9295,-0.9372,-0.9373,-0.9459,-0.9472,-0.9501,-0.9575,-0.9582,-0.9571,-0.9575,-0.9577,-0.9579,0,0,0,0,0,0,0,-0.8972,-0.8989,-0.9153,-0.9153,-0.9165,-0.9193,-0.9212,-0.9264,-0.9369,-0.9301,-0.931,-0.9328,-0.9465,-0.9495,-0.9506,-0.9585,-0.9571,-0.9576,-0.958,-0.9582,-0.9679,-0.9678,0,0,0,0,0,0,-0.895,-0.8981,-0.9147,-0.9158,-0.9076,-0.9196,-0.9217,-0.9252,-0.9369,-0.9388,-0.9327,-0.9333,-0.9485,-0.9499,-0.9513,-0.9537,-0.9577,-0.9583,-0.9586,-0.968,-0.9679,-0.9678,0,0,0,0,0,0,-0.8945,-0.8964,-0.914,-0.9072,-0.9096,-0.9199,-0.9236,-0.9254,-0.9285,-0.9388,-0.9407,-0.9339,-0.9486,-0.9504,-0.9553,-0.9544,-0.9585,-0.9591,-0.9681,-0.9679,-0.9678,-0.9584,0,0,0,0,0,0,-0.8938,-0.8962,-0.8967,-0.9071,-0.91,-0.9177,-0.9236,-0.9257,-0.9295,-0.9304,-0.9404,-0.9422,-0.9488,-0.9543,-0.9558,-0.9553,-0.9595,-0.9682,-0.968,-0.9679,-0.9588,-0.9579,-0.9572,0,0,0,0,0,-0.893,-0.8934,-0.8967,-0.8986,-0.9109,-0.9176,-0.9192,-0.9268,-0.9293,-0.93,-0.9367,-0.9419,-0.9543,-0.9547,-0.9565,-0.9561,-0.9683,-0.9681,-0.9679,-0.9592,-0.9581,-0.9572,0,0,0,0,0,0,-0.8827,-0.8949,-0.8987,-0.9025,-0.9089,-0.9194,-0.9205,-0.9255,-0.9313,-0.9319,-0.9412,-0.9433,-0.9472,-0.9522,-0.9525,-0.9581,-0.9619,-0.962,-0.9547,-0.9538,-0.953,-0.9516,-0.96,0,0,0,0,0,-0.8808,-0.8852,-0.8957,-0.898,-0.9011,-0.9102,-0.9134,-0.9187,-0.9258,-0.9286,-0.9356,-0.9422,-0.9476,-0.951,-0.9566,-0.9596,-0.962,-0.9603,-0.9595,-0.9587,-0.9587,-0.9608,-0.9601,-0.9671,-0.9671,-0.9671,0,0,-0.8771,-0.8843,-0.8865,-0.8961,-0.9017,-0.9061,-0.9124,-0.9168,-0.9201,-0.9292,-0.9342,-0.9396,-0.9476,-0.9516,-0.9537,-0.9558,-0.9574,-0.9585,-0.9578,-0.9582,-0.9605,-0.9598,-0.9592,-0.9669,-0.9669,-0.967,0,0,-0.8724,-0.8783,-0.8809,-0.8864,-0.8949,-0.901,-0.9016,-0.9114,-0.9153,-0.9205,-0.9274,-0.9316,-0.9407,-0.9462,-0.9501,-0.9477,-0.9527,-0.9492,-0.9449,-0.9468,-0.9463,-0.9458,-0.9449,-0.9445,-0.9492,-0.9492,-0.9492,0,-0.8667,-0.8735,-0.8817,-0.8856,-0.8896,-0.8981,-0.9009,-0.9058,-0.9156,-0.9182,-0.9205,-0.9322,-0.9382,-0.9436,-0.943,-0.9459,-0.9469,-0.9481,-0.9457,-0.9453,-0.945,-0.9443,-0.9439,-0.9487,-0.9487,-0.9488,-0.9488,0,-0.866,-0.8707,-0.8718,-0.881,-0.8852,-0.8884,-0.8972,-0.9004,-0.9054,-0.9113,-0.9165,-0.924,-0.9312,-0.9329,-0.9379,-0.939,-0.9401,-0.9439,-0.9479,-0.9437,-0.9432,-0.943,-0.948,-0.9482,-0.9483,-0.9484,0,0,-0.8552,-0.869,-0.8692,-0.8735,-0.8835,-0.8872,-0.891,-0.8981,-0.9007,-0.9072,-0.9106,-0.9181,-0.9217,-0.9262,-0.9319,-0.9335,-0.9311,-0.9372,-0.9375,-0.9357,-0.9328,-0.9298,-0.9294,-0.9345,-0.9345,-0.9345,-0.9321,0,-0.8521,-0.8591,-0.8666,-0.8711,-0.8755,-0.8836,-0.8869,-0.8934,-0.899,-0.9036,-0.9099,-0.9151,-0.9195,-0.9222,-0.9243,-0.9309,-0.9306,-0.9312,-0.9377,-0.9379,-0.9353,-0.9291,-0.9259,-0.9233,-0.932,-0.932,-0.9319,0,-0.8493,-0.8553,-0.8602,-0.8698,-0.8719,-0.8747,-0.8818,-0.8861,-0.8937,-0.8977,-0.9027,-0.9087,-0.9131,-0.9166,-0.9229,-0.9231,-0.9263,-0.9299,-0.93,-0.9309,-0.9345,-0.9297,-0.9227,-0.9223,-0.9317,-0.9317,-0.9317,0,-0.8408,-0.8502,-0.8544,-0.8578,-0.8691,-0.8709,-0.8757,-0.8834,-0.8872,-0.8934,-0.896,-0.9027,-0.9063,-0.9114,-0.919,-0.9209,-0.9244,-0.9286,-0.9279,-0.9277,-0.9282,-0.928,-0.9215,-0.9303,-0.9303,-0.9303,-0.9303,0,-0.8364,-0.839,-0.8507,-0.8533,-0.8565,-0.8652,-0.8681,-0.8737,-0.8805,-0.8843,-0.8918,-0.8952,-0.9052,-0.9098,-0.9159,-0.9201,-0.9217,-0.9251,-0.9266,-0.9244,-0.9239,-0.9265,-0.9268,-0.9302,-0.9302,-0.9303,-0.9303,0,-0.8275,-0.8354,-0.8405,-0.8508,-0.8534,-0.8553,-0.8642,-0.867,-0.8731,-0.8778,-0.8794,-0.889,-0.8949,-0.9031,-0.9114,-0.9155,-0.9189,-0.9214,-0.9162,-0.9172,-0.9159,-0.9159,-0.9108,-0.9105,-0.9194,-0.9193,-0.9193,0,-0.8241,-0.8263,-0.8369,-0.8399,-0.8445,-0.8493,-0.8532,-0.8619,-0.8657,-0.8745,-0.8762,-0.8826,-0.8882,-0.8972,-0.9049,-0.9114,-0.9141,-0.9119,-0.9151,-0.9128,-0.914,-0.9137,-0.914,-0.911,-0.9109,-0.9108,-0.9107,0,-0.8172,-0.8211,-0.8264,-0.8331,-0.8375,-0.8432,-0.8493,-0.8514,-0.8614,-0.8652,-0.8713,-0.8756,-0.8841,-0.8904,-0.8979,-0.903,-0.9085,-0.9096,-0.9098,-0.9074,-0.9043,-0.9059,-0.914,-0.9097,-0.9098,-0.9098,-0.9099,-0.9099,-0.811,-0.8133,-0.8211,-0.8268,-0.8323,-0.8378,-0.8409,-0.8474,-0.8526,-0.8602,-0.865,-0.8708,-0.8785,-0.8891,-0.8939,-0.8986,-0.9009,-0.9011,-0.9012,-0.901,-0.9002,-0.9036,-0.9,-0.9001,-0.9001,-0.9002,-0.9002,0,-0.8044,-0.8098,-0.815,-0.8232,-0.8277,-0.8325,-0.8395,-0.8429,-0.8479,-0.8546,-0.8599,-0.8669,-0.8731,-0.8813,-0.8881,-0.8903,-0.893,-0.8917,-0.8916,-0.8927,-0.8979,-0.897,-0.8895,-0.8895,-0.8895,-0.8895,-0.8895,-0.8895,-0.8015,-0.8058,-0.8105,-0.8176,-0.8231,-0.8288,-0.8323,-0.8375,-0.8428,-0.8502,-0.8554,-0.8607,-0.8681,-0.8754,-0.8813,-0.8836,-0.8857,-0.8837,-0.8867,-0.8914,-0.8923,-0.8932,-0.8925,-0.8841,-0.8841,-0.8812,-0.8811,-0.8811]}]]